Regional Weather Roundup
Issued by NWS

Home | Current Version | Previous Version | Graphics & Text | Print | Product List | Glossary On
Versions: 1 2 3 4 5 6 7 8 9 10 11 12 13 14 15 16 17 18 19 20 21 22 23 24 25 26 27 28 29 30 31 32 33 34 35 36 37 38 39 40 41 42 43 44 45 46 47 48 49 50
000
ASUS43 KOAX 201302
RWRNE

WEATHER ROUNDUP FOR NEBRASKA
NATIONAL WEATHER SERVICE OMAHA NE
700 AM CST THU NOV 20 2014

NOTES: SATELLITE DATA IS BEING USED TO AUGMENT CLOUD COVER ABOVE
       12000 FEET.
       "FAIR" INDICATES FEW OR NO CLOUDS BELOW 12,000 FEET WITH NO
       SIGNIFICANT WEATHER AND/OR OBSTRUCTIONS TO VISIBILITY.

  * THESE STATIONS DO NOT REPORT WEATHER SUCH AS RAIN...SNOW OR FOG.

NEZ001>004-019>022-054>056-201400-
NEBRASKA PANHANDLE

CITY           SKY/WX    TMP DP  RH WIND       PRES   REMARKS
SCOTTSBLUFF    PTCLDY    13  10  88 N6        29.99S WCI   4
ALLIANCE       PTCLDY    10   6  84 W5        29.99R WCI   2
CHADRON        PTCLDY     8   4  83 CALM      30.01S
KIMBALL        PTCLDY    16  12  85 W5        29.96S WCI   9
SIDNEY         PTCLDY    13   9  84 W8        30.00R WCI   2
$$

NEZ057>060-069>072-079>082-201400-
SOUTHWEST NEBRASKA

CITY           SKY/WX    TMP DP  RH WIND       PRES   REMARKS
NORTH PLATTE   CLEAR      8   5  87 CALM      30.06R
IMPERIAL       MOCLDY    13   9  84 N5        30.03S WCI   5
LEXINGTON      PTCLDY    11   9  89 CALM      30.09R
MCCOOK         MOCLDY    13   9  84 CALM      30.05S
OGALLALA       PTCLDY    12  10  92 W7        30.03R WCI   1
$$

NEZ005>010-023>029-035>040-094-201400-
NORTH CENTRAL NEBRASKA

CITY           SKY/WX    TMP DP  RH WIND       PRES   REMARKS
VALENTINE      CLOUDY    16  13  88 CALM      30.07R
AINSWORTH      MOCLDY    16  15  93 CALM      30.08R
BROKEN BOW     PTCLDY     7   4  87 CALM      30.09R
O`NEILL        CLOUDY    16  15  95 N3        30.13R
ORD            PTCLDY     7   4  87 CALM      30.13R
THEDFORD       FOG       10   8  89 CALM      30.06R VSB 1/2
$$

NEZ041-046>049-061>064-073>077-083>087-201400-
SOUTH CENTRAL NEBRASKA

CITY           SKY/WX    TMP DP  RH WIND       PRES   REMARKS
GRAND ISLAND   PTCLDY    12   6  77 CALM      30.15R
AURORA         PTCLDY    11   9  89 CALM      30.15R
HASTINGS       PTCLDY    18  13  80 SE5       30.12S WCI  11
HEBRON         CLEAR     14  11  87 CALM      30.17S
HOLDREGE       MOCLDY    15  12  88 SE3       30.09R
KEARNEY *      PTCLDY    14  10  85 CALM      30.13R
YORK           PTCLDY     7   5  92 CALM      30.16R
$$

NEZ011>018-030>034-042>045-201400-
NORTHEAST NEBRASKA

CITY           SKY/WX    TMP DP  RH WIND       PRES   REMARKS
NORFOLK        CLOUDY    13  10  88 W3        30.16R
ALBION         PTCLDY     4   0  80 CALM      30.16R
BLAIR          PTCLDY    12   8  85 CALM      30.17R
COLUMBUS *     PTCLDY     7  -2  66 CALM      30.18S
FREMONT        PTCLDY    10   6  87 W3        30.19R
TEKAMAH        CLEAR     12   7  80 W8        30.20R WCI   0
WAYNE          CLOUDY    21  15  77 NW6       30.17R WCI  14
$$

NEZ050>053-065>068-078-088>093-201400-
SOUTHEAST NEBRASKA

CITY           SKY/WX    TMP DP  RH WIND       PRES   REMARKS
LINCOLN        CLEAR     11   6  81 CALM      30.21R
OMAHA EPPLEY   PTCLDY    16  11  80 CALM      30.22R
BEATRICE       CLEAR     11   8  89 CALM      30.19R
FALLS CITY     CLEAR     13  10  88 W5        30.21R WCI   5
NEBRASKA CITY  CLEAR     16  10  78 W6        30.20R WCI   7
PLATTSMOUTH    CLEAR     15  10  82 NW5       30.19R WCI   7
$$

NEZ044-045-051>053-067-201400-
OMAHA AREA

CITY           SKY/WX    TMP DP  RH WIND       PRES   REMARKS
OMAHA EPPLEY   PTCLDY    16  11  80 CALM      30.22R
BLAIR          PTCLDY    12   8  85 CALM      30.17R
FREMONT        PTCLDY    10   6  87 W3        30.19R
OFFUTT AFB     CLEAR     13   9  84 NW5       30.20R WCI   5
PLATTSMOUTH    CLEAR     15  10  82 NW5       30.19R WCI   7
WAHOO          FAIR       7   3  84 NE3       30.19R
$$



USA.gov is the U.S. government's official web portal to all federal, state and local government web resources and services.